Location: Gaast
(52.9002°N, 5.8891°E)
Time: 02:03:57
(UTC+00:00)

Okean 2 Rocket - Pass Details

Date: 18 November 2025
Orbit: 611 x 634 km, 82.5° (Epoch: 15 December)

Event Time Altitude Azimuth Distance (km) Brightness Sun altitude
Rises 18:50:00 0° 213° (SSW) 2,886 6.8 -28.6°
Reaches altitude 10° 18:52:23 10° 222° (SW) 1,981 6.0 -29.0°
Maximum altitude 18:56:26 36° 289° (WNW) 988 4.5 -29.6°
Enters shadow 18:57:30 31° 321° (NW) 1,090 4.6 -29.7°
